Terminal Aerodrome Forecast
Issued by NWS Blacksburg, VA

Home | Current Version | Previous Version | Text Only | Print | Product List | Glossary On
Versions: 1 2 3 4 5 6 7 8 9 10 11 12 13 14 15 16 17 18 19 20 21 22 23 24 25 26 27 28 29 30 31 32 33 34 35 36 37 38 39
000
FTUS41 KRNK 210725 AAB
TAFLYH
TAF AMD
KLYH 210725Z 2107/2206 00000KT P6SM SCT250
     FM210900 VRB03KT 1 1/2SM BR SCT250
     FM211300 25006KT P6SM FEW035
     FM212000 25007KT P6SM BKN060
     FM220200 29005KT P6SM SCT250=

USA.gov is the U.S. government's official web portal to all federal, state and local government web resources and services.